Location: Berduj
(43.0019°N, 22.3781°E)
Time: 18:45:31
(UTC+00:00)

ATLAS 5 CENTAUR R/B - Pass Details

Date: 19 October 2019
Orbit: 557 x 1102 km, 63.4° (Epoch: 11 November)

Event Time Altitude Azimuth Distance (km) Brightness Sun altitude
Rises 17:24:27 0° 281° (W) 2,866 6.6 -19.4°
Reaches altitude 10° 17:28:07 10° 314° (NW) 2,061 4.9 -20.1°
Maximum altitude 17:29:55 12° 337° (NNW) 1,983 4.5 -20.4°
Drops below altitude 10° 17:31:48 10° 359° (N) 2,178 4.4 -20.8°
Enters shadow 17:34:42 - 23° (NNE) 2,864 4.8 -21.3°
